STARLINK-2697, 48474

Orbit data source: Space-Track

STARLINK-2697, 48474 is a payload satellite owned by SpaceX/Seattle (US) in LEO that was launched on Sun, 09 May 2021 UTC via an FALCON 9 launch vehicle from the Air Force Eastern Test Range (AFETR). Payload-class satellites include a variety of spacecraft equipped with specific instruments for various scientific and technological missions. These include communications satellites like Starlink; space stations such as the ISS; scientific satellites like the Hubble; Earth observation satellites from companies like Planet Labs, Umbra, and HawkEye 360; GPS; miniature CubeSats for education and research; and military/defense satellites.

Loading next visibility...
Identifier
48474, 2021-040AY
Orbit
LEO
Country
Flag of USUS
Related business
Manufacturer
SpaceX/Seattle
Mission
Operational Commercial Communications
Bus & Motor
STARLINK, Unknown motor
Mass
260 kg wet, ~248 kg dry
Launch date (UTC)
2021-05-09 (5 years ago)
Launch vehicle
FALCON 9
Launch site
Air Force Eastern Test Range (AFETR)
Object type
Payload
Rocket body
Debris
Shape & HBR
Box + 1 Pan, 10.1 m
Radar Cross Section
13.562 m², Large (>1 m²)

Expand to show TLE details & history
Last TLE update: 2 days ago

TLE from 2 days ago
0 STARLINK-2697
1 48474U 21040AY  26171.44000855 -.00001393  00000-0 -33133-4 0  9992
2 48474  53.1602  73.7371 0001441  92.7906 267.3260 15.31705509282225
Epoch: 2026-06-20T10:33Z
TLE epoch observation values (Epoch: 2026-06-20T10:33:36.738Z)
Latitude
-0.00006°
Longitude
6.67937°
Altitude
471.67 km
Speed
7.631 km/s
True Right ascension
04h 54m 56s
True Declination
0° 00' 00"
Sunlit
Object was in daylight at epoch
Visualization orbit readout
Latitude
Unknown
Longitude
Unknown
Altitude
Unknown
Speed
Unknown
Apparent Right ascension
Unknown
Apparent Declination
Unknown
Sunlit
N/A
Visualization observer readout
Local Sidereal Time
21:25:12
Azimuth
Unknown
Elevation
Unknown
Doppler factor
Unknown
Orbital elements
Apogee altitude
471.967 km
Perigee altitude
469.993 km
Semi-major axis
6,849.117 km
Eccentricity
0.00014
Inclination
53.1602°
RAAN
73.7371°
Arg. of periapsis
92.7906°
True anomaly
267.30951°
Mean anomaly
267.326°
Eccentric anomaly
267.31775°
Mean motion
3.82905 °/min
Orbital period
94.02 mins
BSTAR
-0.000033133
Loading maneuver chart data...
Computing Atmospheric mass density...

Documentation

Showing up to 5 results
|